Regional Weather Roundup
Issued by NWS

Home | Current Version | Previous Version | Text Only | Print | Product List | Glossary Off
Versions: 1 2 3 4 5 6 7 8 9 10 11 12 13 14 15 16 17 18 19 20 21 22 23 24 25 26 27 28 29 30 31 32 33 34 35 36 37 38 39 40 41 42 43 44 45 46 47 48 49 50

000
ASUS43 KDMX 240201
RWRIA

WEATHER ROUNDUP FOR IOWA
NATIONAL WEATHER SERVICE DES MOINES IA
800 PM CST THU NOV 23 2017

NOTE: "FAIR" INDICATES FEW OR NO CLOUDS BELOW 12,000 FEET WITH NO
SIGNIFICANT WEATHER AND/OR OBSTRUCTIONS TO VISIBILITY.

* - THESE STATIONS ARE NOT NWS STATIONS...THUS NOT UNDER NWS
QUALITY CONTROL.  THEY ALSO DO NOT REPORT WEATHER SUCH
AS PRECIPITATION OR FOG.

IAZ001>003-012>014-020>022-031>034-043>046-240300-
   NORTHWEST IOWA

CITY           SKY/WX    TMP DP  RH WIND       PRES   REMARKS
CARROLL *      PTCLDY    52  36  54 SW17      29.79F
CHEROKEE *     PTCLDY    48  36  61 S6        29.75F
DENISON *      CLOUDY    52  37  58 S9        29.80F
LE MARS *      MOCLDY    54  39  58 S16       29.73F
ORANGE CITY *  MOCLDY    52  39  62 S12       29.73F
SHELDON *      MOCLDY    48  36  61 S12       29.71F
SIOUX CITY     CLOUDY    47  38  71 SE8       29.75F
SPENCER        CLOUDY    41  32  70 S8        29.74F
STORM LAKE *   PTCLDY    48  36  61 S12       29.76F
$$

IAZ055>058-069>071-079>083-090>094-240300-
   SOUTHWEST IOWA

CITY           SKY/WX    TMP DP  RH WIND       PRES   REMARKS
ATLANTIC *     MOCLDY    48  37  66 S7        29.84F
AUDUBON *      PTCLDY    52  37  58 S9        29.83F
CLARINDA *       N/A     43  36  75 SW3         N/A
COUNCIL BLFS * MOCLDY    52  39  62 S10       29.82F
CRESTON *      CLOUDY    48  36  61 S12       29.87F
HARLAN  *      CLOUDY    48  37  66 S6        29.85F
LAMONI         CLEAR     48  35  60 S8        29.89S
RED OAK *      CLOUDY    48  36  61 S5        29.85F
SHENANDOAH *   PTCLDY    50  37  62 SE10      29.85F
$$

IAZ047>049-059>061-072>074-084-240300-
   CENTRAL IOWA

CITY           SKY/WX    TMP DP  RH WIND       PRES   REMARKS
AMES           PTCLDY    40  33  76 SE7       29.83F
ANKENY *       CLOUDY    43  32  65 S5        29.86F
BOONE *        PTCLDY    45  32  61 S9        29.82F
CHARITON *     PTCLDY    45  34  65 S10       29.88S
DES MOINES     PTCLDY    46  32  58 S10       29.85F
GRINNELL*      CLEAR     38  30  72 S7        29.89S WCI  33
KNOXVILLE *    CLEAR     45  30  57 S8        29.86F HAZE
MARSHALLTOWN   CLEAR     39  30  70 S7        29.85F WCI  34
NEWTON *       CLOUDY    41  30  65 S8        29.87F
PELLA *        CLEAR     44  31  61 S5        29.89F
PERRY *          N/A     43  30  60 S7        29.83F
$$

IAZ004>006-015-016-023>025-035-036-240300-
   NORTH CENTRAL IOWA

CITY           SKY/WX    TMP DP  RH WIND       PRES   REMARKS
ALGONA *       CLEAR     43  32  65 S14       29.76F
CLARION *      CLEAR     41  32  70 S14       29.79F
ESTHERVILLE    CLEAR     38  31  76 S10       29.73F WCI  31
FORT DODGE *   CLOUDY    48  32  53 S9        29.79F
MASON CITY     CLEAR     35  27  72 S9        29.80F WCI  28
FOREST CITY *    N/A     36  30  80 S7        29.78F WCI  30
WEBSTER CITY * PTCLDY    43  32  65 S12       29.79F
IOWA FALLS *     N/A     39  31  71 SE6       29.84F
$$

IAZ007>011-017>019-026>030-037>042-050>054-066-240300-
   NORTHEAST IOWA

CITY           SKY/WX    TMP DP  RH WIND       PRES   REMARKS
CEDAR RAPIDS   CLEAR     36  27  69 S3        29.88S
CHARLES CITY * CLEAR     37  28  70 S12       29.82F WCI  30
CLINTON *      CLEAR     35  26  69 S7        29.91F WCI  29
DECORAH *      CLEAR     37  27  65 S7        29.82F WCI  32
DUBUQUE        CLEAR     32  25  75 SW6       29.88S WCI  26
MONTICELLO *   CLEAR     32  27  80 CALM      29.88S
OELWEIN *      CLEAR     34  28  80 S8        29.86F WCI  27
WATERLOO       CLEAR     36  27  69 S6        29.85F WCI  31
$$

IAZ064-065-067-068-078-240300-
   EAST CENTRAL IOWA

CITY           SKY/WX    TMP DP  RH WIND       PRES   REMARKS
DAVENPORT      FLURRIES  34  25  69 S7        29.93F WCI  28
IOWA CITY      CLEAR     35  26  69 CALM      29.91F
MT. PLEASANT * CLEAR     35  28  75 S6        29.91F WCI  30
MUSCATINE *    CLEAR     32  27  80 CALM      29.92S
QUAD CITIES    CLEAR     34  25  69 CALM      29.91F
$$

IAZ062-063-075>077-085>089-095>099-240300-
   SOUTHEAST IOWA

CITY           SKY/WX    TMP DP  RH WIND       PRES   REMARKS
BURLINGTON     CLEAR     36  29  75 SE3       29.92F
FAIRFIELD *    CLEAR     37  28  70 S6        29.90S WCI  33
FORT MADISON * CLEAR     45  30  57 S5        29.93F
KEOKUK *       CLEAR     37  30  75 S3        29.92F
OSKALOOSA *      N/A     37  29  73 S7        29.90S WCI  31
OTTUMWA        CLEAR     40  29  64 S6        29.90S
WASHINGTON *   CLEAR     36  28  75 S7        29.91S WCI  30
$$

ABBREVIATIONS USED IN REMARKS
   TC - TEMPERATURES IN CELSIUS
  WCI - WIND CHILL INDEX
   HX - HEAT INDEX
  VSB - VISIBILITY
$$





USA.gov is the U.S. government's official web portal to all federal, state and local government web resources and services.